Wahpeton, ND

11:53 AM CDT on August 25, 2016 (GMT -0500)
Stern

Weather History for KBWP - March, 2013

Change the Weather History Date:

Friday, March 15, 2013

  Actual Average (KFFM) Record (KFFM)
Temperature  
Mean Temperature 22 °F -  
Max Temperature 28 °F 35 °F 75 °F (2015)
Min Temperature 17 °F 15 °F -14 °F (1979)
Degree Days  
Heating Degree Days 42    
Moisture  
Dew Point 20 °F    
Average Humidity 87    
Maximum Humidity 93    
Minimum Humidity 80    
Precipitation  
Precipitation 0.00 in - - ()
Sea Level Pressure  
Sea Level Pressure 29.98 in    
Wind  
Wind Speed 13 mph (North)    
Max Wind Speed 20 mph    
Max Gust Speed 23 mph    
Visibility 6 miles    
Events      
Averages and records for this station are not official NWS values.
T = Trace of Precipitation, MM = Missing Value Source: NWS Daily Summary

Daily Weather History Graph

Daily Weather History Graph

Search for Another Location

Airport or City:

Trip Planner

Search our weather history database for the weather conditions in past years. The results will help you decide how hot, cold, wet, or windy it might be!

Date:

Astronomy

Mar. 15, 2013 Rise Set
Actual Time 7:38 AM CDT 7:32 PM CDT
Civil Twilight 7:08 AM CDT 8:02 PM CDT
Nautical Twilight 6:33 AM CDT 8:37 PM CDT
Astronomical Twilight 5:58 AM CDT 9:13 PM CDT
Moon 9:14 AM CDT (3/15) No Moon Set
Length of Visible Light 12h 53m
Length of Day
11h 54m
Waxing Crescent, 15% of the Moon is Illuminated
Mar 15
Waxing Crescent
Mar 19
First Quarter
Mar 27
Full
Apr 2
Last Quarter
Apr 10
New

Hourly Weather History & Observations

Time (CDT) Temp. Windchill Dew Point Humidity Pressure Visibility Wind Dir Wind Speed Gust Speed Precip Events Conditions
12:15 AM 23.0 °F 9.6 °F 19.4 °F 86% 30.07 in 10.0 mi NNW 16.1 mph 23.0 mph N/A   Overcast
12:35 AM 23.0 °F 9.6 °F 19.4 °F 86% 30.06 in 10.0 mi North 16.1 mph - N/A   Scattered Clouds
12:55 AM 23.0 °F 10.1 °F 19.4 °F 86% 30.06 in 10.0 mi NNW 15.0 mph 20.7 mph N/A   Scattered Clouds
1:15 AM 23.0 °F 10.6 °F 19.4 °F 86% 30.07 in 10.0 mi NNW 13.8 mph - N/A   Mostly Cloudy
1:35 AM 23.0 °F 11.1 °F 19.4 °F 86% 30.07 in 10.0 mi North 12.7 mph - N/A   Overcast
1:55 AM 23.0 °F 10.1 °F 19.4 °F 86% 30.05 in 10.0 mi North 15.0 mph - N/A   Overcast
2:15 AM 23.0 °F 9.6 °F 19.4 °F 86% 30.05 in 10.0 mi North 16.1 mph 20.7 mph N/A   Overcast
2:35 AM 23.0 °F 9.6 °F 19.4 °F 86% 30.04 in 7.0 mi North 16.1 mph - N/A   Overcast
2:55 AM 23.0 °F 9.2 °F 19.4 °F 86% 30.05 in 7.0 mi North 17.3 mph - N/A   Overcast
3:15 AM 23.0 °F 10.6 °F 19.4 °F 86% 30.04 in 10.0 mi North 13.8 mph - N/A   Overcast
3:35 AM 23.0 °F 10.6 °F 19.4 °F 86% 30.02 in 10.0 mi North 13.8 mph - N/A   Overcast
3:55 AM 23.0 °F 10.1 °F 19.4 °F 86% 30.01 in 7.0 mi North 15.0 mph 20.7 mph N/A   Overcast
4:35 AM 23.0 °F 10.1 °F 19.4 °F 86% 30.00 in 7.0 mi North 15.0 mph - N/A   Overcast
4:55 AM 23.0 °F 10.6 °F 21.2 °F 93% 29.99 in 7.0 mi North 13.8 mph - N/A   Overcast
5:15 AM 23.0 °F 10.1 °F 21.2 °F 93% 29.99 in 5.0 mi North 15.0 mph - N/A   Overcast
5:35 AM 23.0 °F 11.7 °F 21.2 °F 93% 30.00 in 7.0 mi North 11.5 mph - N/A   Overcast
5:55 AM 23.0 °F 12.4 °F 21.2 °F 93% 30.00 in 7.0 mi North 10.4 mph - N/A   Overcast
6:15 AM 23.0 °F 10.6 °F 21.2 °F 93% 30.00 in 7.0 mi North 13.8 mph - N/A   Overcast
6:35 AM 23.0 °F 13.1 °F 19.4 °F 86% 30.00 in 5.0 mi North 9.2 mph - N/A   Overcast
6:55 AM 23.0 °F 13.1 °F 19.4 °F 86% 30.00 in 7.0 mi North 9.2 mph - N/A   Overcast
7:15 AM 23.0 °F 12.4 °F 19.4 °F 86% 30.01 in 7.0 mi North 10.4 mph - N/A   Overcast
7:35 AM 23.0 °F 11.1 °F 19.4 °F 86% 30.00 in 2.0 mi North 12.7 mph - N/A   Overcast
7:55 AM 23.0 °F 12.4 °F 19.4 °F 86% 30.00 in 1.2 mi North 10.4 mph - N/A   Overcast
8:15 AM 23.0 °F 11.1 °F 19.4 °F 86% 29.99 in 2.0 mi North 12.7 mph - N/A   Overcast
8:35 AM 23.0 °F 11.1 °F 19.4 °F 86% 29.99 in 1.8 mi North 12.7 mph - N/A   Mostly Cloudy
8:55 AM 23.0 °F 11.1 °F 19.4 °F 86% 30.00 in 1.2 mi North 12.7 mph 17.3 mph N/A   Mostly Cloudy
9:15 AM 23.0 °F 12.4 °F 19.4 °F 86% 29.99 in 2.0 mi North 10.4 mph - N/A   Unknown
9:35 AM 23.0 °F 11.7 °F 19.4 °F 86% 29.99 in 2.0 mi North 11.5 mph - N/A   Overcast
10:55 AM 24.8 °F 14.0 °F 21.2 °F 86% 29.99 in 3.0 mi North 11.5 mph - N/A   Overcast
11:15 AM 24.8 °F 14.0 °F 21.2 °F 86% 29.97 in 7.0 mi NNE 11.5 mph - N/A   Overcast
11:35 AM 24.8 °F 15.3 °F 21.2 °F 86% 29.98 in 10.0 mi NNE 9.2 mph - N/A   Overcast
11:55 AM 26.6 °F 16.8 °F 21.2 °F 80% 29.98 in 10.0 mi NNE 10.4 mph - N/A   Overcast
12:15 PM 26.6 °F 16.8 °F 21.2 °F 80% 29.97 in 10.0 mi NNE 10.4 mph - N/A   Overcast
12:35 PM 26.6 °F 16.8 °F 21.2 °F 80% 29.96 in 10.0 mi NNE 10.4 mph - N/A   Overcast
12:55 PM 26.6 °F 17.5 °F 23.0 °F 86% 29.95 in 7.0 mi North 9.2 mph - N/A   Overcast
1:15 PM 26.6 °F 16.8 °F 23.0 °F 86% 29.94 in 10.0 mi NNE 10.4 mph - N/A   Overcast
1:35 PM 28.4 °F 19.1 °F 23.0 °F 80% 29.92 in 5.0 mi NE 10.4 mph - N/A   Overcast
1:55 PM 28.4 °F 21.2 °F 23.0 °F 80% 29.93 in 4.0 mi NE 6.9 mph - N/A   Overcast
2:15 PM 28.4 °F 21.2 °F 23.0 °F 80% 29.90 in 0.8 mi East 6.9 mph - N/A   Overcast
2:55 PM 28.4 °F 24.6 °F 24.8 °F 86% 29.90 in 2.5 mi ENE 3.5 mph - N/A   Overcast
3:15 PM 28.4 °F 19.7 °F 24.8 °F 86% 29.94 in 0.5 mi NW 9.2 mph - N/A   Overcast
3:35 PM 26.6 °F 16.8 °F 23.0 °F 86% 29.91 in 2.5 mi North 10.4 mph - N/A   Overcast
3:55 PM 26.6 °F 16.2 °F 23.0 °F 86% 29.87 in 2.5 mi NNE 11.5 mph - N/A   Overcast
4:15 PM 26.6 °F 16.8 °F 23.0 °F 86% 29.91 in 0.5 mi North 10.4 mph - N/A   Overcast
4:35 PM 26.6 °F 16.2 °F 23.0 °F 86% 29.92 in 0.5 mi North 11.5 mph - N/A   Mostly Cloudy
4:55 PM 24.8 °F 11.9 °F 21.2 °F 86% 29.92 in 1.0 mi North 16.1 mph - N/A   Unknown
5:15 PM 24.8 °F 12.4 °F 21.2 °F 86% 29.92 in 3.0 mi North 15.0 mph - N/A   Clear
5:35 PM 23.0 °F 11.7 °F 21.2 °F 93% 29.91 in 5.0 mi North 11.5 mph - N/A   Clear
5:55 PM 23.0 °F 11.7 °F 21.2 °F 93% 29.91 in 10.0 mi NNE 11.5 mph - N/A   Clear
6:15 PM 23.0 °F 12.4 °F 21.2 °F 93% 29.92 in 10.0 mi North 10.4 mph - N/A   Clear
6:35 PM 23.0 °F 11.7 °F 21.2 °F 93% 29.91 in 3.0 mi North 11.5 mph - N/A   Clear
6:55 PM 23.0 °F 11.1 °F 21.2 °F 93% 29.92 in 2.5 mi North 12.7 mph - N/A   Clear
7:15 PM 23.0 °F 11.1 °F 21.2 °F 93% 29.92 in 2.0 mi North 12.7 mph - N/A   Clear
7:35 PM 23.0 °F 11.1 °F 19.4 °F 86% 29.93 in 1.8 mi North 12.7 mph - N/A   Unknown
7:55 PM 21.2 °F 10.1 °F 19.4 °F 93% 29.93 in 3.0 mi North 10.4 mph - N/A   Clear
8:15 PM 21.2 °F 8.9 °F 19.4 °F 93% 29.95 in 5.0 mi North 12.7 mph 18.4 mph N/A   Clear
8:35 PM 21.2 °F 8.9 °F 19.4 °F 93% 29.96 in 7.0 mi North 12.7 mph - N/A   Clear
8:55 PM 21.2 °F 8.3 °F 17.6 °F 86% 29.97 in 10.0 mi North 13.8 mph - N/A   Clear
9:15 PM 21.2 °F 8.3 °F 17.6 °F 86% 29.97 in 5.0 mi North 13.8 mph 18.4 mph N/A   Clear
9:35 PM 19.4 °F 6.6 °F 17.6 °F 93% 29.99 in 4.0 mi North 12.7 mph 19.6 mph N/A   Clear
9:55 PM 19.4 °F 6.6 °F 17.6 °F 93% 30.00 in 3.0 mi North 12.7 mph 18.4 mph N/A   Clear
10:15 PM 19.4 °F 3.6 °F 17.6 °F 93% 30.00 in 2.0 mi North 19.6 mph - N/A   Clear
10:35 PM 19.4 °F 4.1 °F 15.8 °F 86% 30.01 in 2.5 mi North 18.4 mph 21.9 mph N/A   Unknown
10:55 PM 17.6 °F 2.7 °F 14.0 °F 86% 30.01 in 4.0 mi North 16.1 mph - N/A   Clear
11:15 PM 17.6 °F 2.7 °F 14.0 °F 86% 30.02 in 4.0 mi North 16.1 mph - N/A   Clear
11:35 PM 17.6 °F 2.7 °F 14.0 °F 86% 30.04 in 10.0 mi North 16.1 mph - N/A   Clear
11:55 PM 17.6 °F 3.7 °F 14.0 °F 86% 30.04 in 10.0 mi North 13.8 mph - N/A   Clear